www.pogodaiklimat.ru

Погода и климат >> Архив погоды >> Россия >> Пермский край >> Лысьва


ПОГОДА в Лысьве

  • Прогноз погоды в Лысьве
  • Монитор погоды в Лысьве
  • Климат города

АРХИВ ПОГОДЫ в Лысьве

Время (UTC), дата Ветер
(напр.,м/с)
 
Видим.   Явления Облачность Т
(С)
Тd
(С)
f
(%)
Тe
(С)
Тes
(С)
Комфортность P
(гПа)
Po
(гПа)
Тmin
(С)
Tmax
(С)
R
(мм)
R24
(мм)
S
(см)
06 17.08 СЗ 2 50 км 4/0
[Ci fib]
+18.3 +9.7 57 +19 +27 1028.0 1001.2
09 17.08 СЗ 2 50 км 8/6 600 м
[Cu med, cong Ci fib]
+19.9 +8.9 49 +22 +25 комфорт 1027.3 1000.7
12 17.08 СЗ 2 50 км 6/6 600 м
[Cu med, cong]
+20.9 +7.0 41 +23 +25 комфорт 1026.8 1000.3
15 17.08 С 1 20 км 1/1 600 м
[Cu med, cong]
+17.8 +7.7 52 +19 +19 1027.2 1000.4 +21.2
18 17.08 З 1 20 км ясно +11.3 +9.0 86 +11 +11 1029.1 1001.7
21 17.08 штиль 0 20 км ясно +8.7 +7.9 95 +8 +8 1029.7 1001.9
00 18.08 З 1 1000 м дымка ясно +6.9 +6.2 95 +6 +6 1029.9 1002.0
03 18.08 штиль 0 1000 м дымка {туман} ясно +7.5 +7.0 97 +6 +9 1030.3 1002.4 +6.3
06 18.08 СЗ 1 20 км {туман} 8/0
[Ci]
+14.8 +7.6 62 +15 +24 1029.6 1002.5
09 18.08 СЗ 1 50 км 6/1 600 м
[Cu hum Ci fib]
+18.6 +4.0 38 +20 +30 1028.7 1001.9
12 18.08 СЗ 2 50 км 3/1 600 м
[Cu hum Ci fib]
+19.8 +5.8 40 +21 +25 комфорт 1027.0 1000.4
15 18.08 С 1 50 км 3/0 2000 м
[Ac lent]
+18.3 +8.2 52 +20 +20 1026.1 999.4 +20.1
18 18.08 ЮВ 1 20 км ясно +12.1 +9.1 82 +12 +12 1026.9 999.6
21 18.08 Ю 1 20 км ясно +10.0 +8.4 90 +9 +9 1026.9 999.4
00 19.08 ЮВ 1 20 км 3/0 2000 м
[Ac lent]
+10.3 +7.9 85 +10 +10 1026.4 998.9
03 19.08 Ю 2 50 км 8/0 2000 м
[Ac cast]
+11.3 +8.7 84 +10 +11 1026.5 999.1 +9.2
06 19.08 ЮЗ 1 50 км 4/0 2000 м
[Ac cast Ci fib]
+19.2 +11.6 61 +21 +29 комфорт 1025.4 998.8
09 19.08 СЗ 3 50 км 9/8 300 м
[Cb cap Ci]
+21.1 +10.7 51 +23 +24 комфорт 1024.6 998.2
12 19.08 СЗ 1 50 км 9/8 300 м
[Cb cap Ac trans Ci sp]
+20.4 +11.9 58 +23 +24 комфорт 1024.5 998.0
15 19.08 ЮЗ 1 50 км 9/0 2000 м
[Ac cast Ci sp]
+18.9 +11.5 62 +21 +21 комфорт 1024.3 997.7 +22.4
18 19.08 ЮВ 1 20 км ясно +14.9 +12.0 83 +15 +15 1024.6 997.7
21 19.08 Ю 2 20 км ясно +14.8 +11.8 82 +14 +14 1024.2 997.2
00 20.08 Ю 2 20 км {ливн. осадки} 10/8 600 м
[Sc Ac und]
+14.0 +12.4 90 +13 +13 1023.6 996.6
03 20.08 Ю 1 10 км дождь 10/10 600 м
[Sc]
+13.7 +12.5 92 +14 +14 1023.6 996.6 +13.7 2
06 20.08 Ю 2 50 км {дождь} 10/6 600 м
[Sc Ac und]
+16.9 +13.6 81 +17 +18 1021.8 995.1 +13.6
09 20.08 З 1 50 км {дождь} 10/10 600 м
[Sc]
+19.5 +15.1 76 +22 +22 комфорт 1021.2 994.7
12 20.08 З 2 20 км {дождь} 10/10 300 м
[Cb cap]
+20.4 +15.3 73 +24 +24 комфорт 1020.8 994.5
15 20.08 Ю 1 4000 м дымка {ливн. осадки} 4/4 300 м
[Cb cap]
+17.8 +16.9 94 +19 +19 1021.1 994.5 +20.9 8
18 20.08 Ю 1 4000 м дымка {ливн. осадки} ясно +15.8 +15.1 96 +16 +16 1022.0 995.2
21 20.08 ЮВ 1 1000 м дымка 6/0 2000 м
[Ac As]
+13.8 +13.2 96 +14 +14 1022.2 995.2
00 21.08 Ю 1 200 м туман ясно +12.0 +11.4 96 +12 +12 1022.9 995.7
03 21.08 Ю 1 1000 м в посл. час туман ясно +13.2 +12.6 96 +13 +15 1023.3 996.2 +11.7 0.3
06 21.08 Ю 1 10 км в посл. час туман 10/0 2000 м
[As trans]
+16.8 +16.1 96 +18 +21 1023.5 996.8
09 21.08 штиль 0 20 км 5/5 600 м
[Cu med, cong]
+22.1 +17.6 76 1022.5 996.4
12 21.08 З 1 20 км 8/3 600 м
[Cu med, cong Ac cuf]
+25.0 +18.1 66 +29 +31 душно 1021.7 995.8
15 21.08 Ю 1 10 км 3/0
[Ci fib]
+23.4 +18.7 75 +30 +30 очень
душно
1021.8 995.7 +26.2
18 21.08 ЮВ 1 4000 м дымка ясно +20.1 +18.6 91 +25 +25 комфорт 1022.6 996.2
21 21.08 ЮВ 1 4000 м дымка ясно +18.8 +17.8 94 +21 +21 комфорт 1023.4 996.9
00 22.08 Ю 1 4000 м дымка ясно +16.4 +15.7 96 +17 +17 1024.5 997.7
03 22.08 Ю 1 4000 м дымка ясно +17.4 +16.7 96 +18 +20 1025.3 998.6 +15.8
06 22.08 СЗ 1 20 км ясно +24.6 +18.8 70 +29 +39 душно 1025.3 999.2
09 22.08 СЗ 1 10 км 3/3 600 м
[Cu med, cong]
+27.9 +18.3 56 +33 +41 очень
душно
1024.6 998.8
12 22.08 З 1 20 км 1/1 600 м
[Cu med, cong]
+28.6 +17.2 50 +33 +37 очень
душно
1024.2 998.5
15 22.08 СВ 1 10 км ясно +24.7 +18.5 68 +29 +29 душно 1024.2 998.2 +29.1
18 22.08 ЮВ 1 4000 м дымка ясно +19.8 +17.8 88 +24 +24 комфорт 1025.0 998.5
21 22.08 Ю 1 4000 м дымка ясно +18.1 +16.8 92 +19 +19 1025.6 999.0
00 23.08 ЮВ 1 4000 м дымка ясно +17.2 +16.3 94 +18 +18 1026.1 999.4
03 23.08 Ю 1 20 км 3/0 2000 м
[Ac cast]
+19.6 +17.0 85 +23 +24 комфорт 1026.8 1000.2 +16.9
06 23.08 Ю 1 20 км ясно +25.0 +16.5 59 +28 +38 жарко 1026.3 1000.2
09 23.08 ЮЗ 2 20 км 3/3 600 м
[Cu hum]
+27.2 +14.8 47 +30 +37 душно 1025.8 999.9
12 23.08 ЮЗ 2 20 км 3/3 600 м
[Cu hum]
+27.9 +13.7 42 +30 +33 жарко 1025.5 999.7
15 23.08 ЮВ 1 20 км ясно +23.6 +16.2 63 +27 +27 жарко 1024.9 998.7 +28.0
18 23.08 ЮВ 1 20 км ясно +18.7 +15.6 82 +21 +21 комфорт 1025.3 998.7
21 23.08 Ю 1 20 км ясно +17.4 +14.3 82 +18 +18 1025.5 998.8
00 24.08 Ю 1 20 км ясно +15.0 +13.0 88 +15 +15 1025.8 998.9
03 24.08 Ю 1 50 км ясно +17.1 +13.5 79 +18 +20 1025.5 998.7 +14.6

 

Местоположение метеостанции Лысьва (Пермский край, Россия): широта 58.12 долгота 57.78 высота над уровнем моря 226 м.

В архиве по умолчанию представлена погода в Лысьве за последнюю неделю. Архивные данные за месяц целиком и за предыдущие месяцы, начиная с января 2011 года, Вы можете получить, выбрав интересующий диапазон дат из раскрывающегося списка и нажав кнопку "Ввод!".

Внимание! Время в таблицах - всемирное. Для получения местного времени необходимо прибавить поправку, которая в Лысьве равна 5 ч.

Смотрите также архив погоды в соседних городах и на ближайших метеорологических станциях:

Погода в Перми (Пермский край, Россия) (67 км)
Погода в Бисере (Пермский край, Россия) (77 км)
Погода в Добрянке (Пермский край, Россия) (86 км)
Погода в Губахе (Пермский край, Россия) (88 км)
Погода в Шамарах (Свердловская область, Россия) (90 км)
Погода в Кунгуре (Пермский край, Россия) (93 км)
Погода в Висиме (Свердловская область, Россия) (115 км)
Погода в Чермозе (Пермский край, Россия) (117 км)
Погода в Кушве (Свердловская область, Россия) (118 км)
Погода в Нижнем Тагиле (Свердловская область, Россия) (138 км)

Пояснения к столбцам:

Ветер - указаны скорость ветра в м/с - средняя за 10 мин, порывы в срок и между сроками (в фигурных скобках) и направление, откуда дует ветер: С - северный, СВ - северо-восточный, В - восточный, ЮВ - юго-восточный, Ю - южный, ЮЗ - юго-западный, З - западный, СЗ - северо-западный.
Видимость - горизонтальная дальность видимости в метрах или километрах. При видимости от 1 до 10 км при отсутствии осадков обычно наблюдается дымка, при ухудшении видимости до 1 км и менее - туман. В сухую погоду видимость может ухудшаться дымом, пылью или мглою.
Явления - указаны атмосферные явления, наблюдавшиеся в срок или в последний час перед сроком; фигурными скобками обозначены явления, наблюдавшиеся между сроками (за 1-3 часа до срока); квадратными скобками обозначены град или гололедные отложения с указанием их диаметра в мм.
Облачность - указаны через наклонную черту общая и нижняя облачность в баллах и высота нижней границы облаков в метрах; квадратными скобками обозначены формы облаков: Ci - перистые, Cs - перисто-слоистые, Cc - перисто-кучевые, Ac - высококучевые, As - высокослоистые, Sc - слоисто-кучевые, Ns - слоисто-дождевые, Cu - кучевые, Cb - кучево-дождевые. Подробнее классификацию облаков см. в Атласе облаков (PDF).
T - Температура воздуха - температура, измеренная на высоте 2 м над землей.
Td - Температура точки росы - температура, при понижении до которой содержащийся в воздухе водяной пар достигнет насыщения.
f - Относительная влажность воздуха - влажноcть воздуха, измеренная на высоте 2 м над землей.
Te - Эффективная температура - температура, которую ощущает одетый по сезону человек в тени. Характеристика душности погоды. При расчете учитывается влияние влажности воздуха и скорости ветра на теплоощущения человека.
Tes - Эффективная температура на солнце - температура, которую ощущает человек, с поправкой на солнечный нагрев. Характеристика знойности погоды. Зависит от высоты солнца над горизонтом, облачности и скорости ветра. Ночью, в пасмурную погоду, а также при ветре 12 м/с и более поправка равна нулю.
P - Атмосферное давление - приведенное к уровню моря атмосферное давление.
Po - Атмосферное давление - измеренное на уровне метеостанции атмосферное давление.
Tmin - Минимальная температура - минимум температуры воздуха на высоте 2 м над землей.
Tmax - Максимальная температура - максимум температуры воздуха на высоте 2 м над землей.
R - Количество осадков - Количество выпавших осадков за период времени, мм. При наведении курсора мыши на число - период времени, за который выпало указанное количество осадков.
R24 - Количество осадков - Количество выпавших осадков за 24 часа, мм.
S - Снежный покров - Высота снежного покрова, см. При наведении курсора мыши на число - состояние снежного покрова и степень покрытия местности в баллах.